Вернуться в каталог

SL-16 DEB

АктивенLEO
NORAD 27760·DEBRIS·🇷🇺 Russia

Запущен Nov 24, 1994 с Baikonur Cosmodrome

Loading…

Ближайшие Пролёты (ближайшие 24 часа)

TLE

СвежийSource: Space-Track

Эпоха: Sep 14, 2026, 07:58 UTC

1 27760U 94077M   26257.33257037  .00002734  00000-0  46921-3 0  9992
2 27760  70.9914 231.6712 0040028 107.2747 322.9373 14.69154326403140

Отслеживайте SL-16 DEB в реальном времени с AllMySat

Download on the App Store